LILACSAT-1 (42725 NORAD) Tracking and Keplerian Element Data

This shows tracking and keplerian element data for the satellite.

Feedback or suggestion? Click here.




ElementValue
Catalog42725
NameLILACSAT-1
Epoch Orbit8502
Epoch Day323.76591417
Epoch Year2018
RAAN279.4855
Inclination51.6362
Eccentricity0.0006018
Argument of Perigee92.6357
Mean Anonmoly337.8815
Mean Motion15.79851178
Decay Rate0.00046324
L11 42725U 98067ME 18323.76591417 .00046324 00000-0 24762-3 0 9990
L22 42725 51.6362 279.4855 0006018 92.6357 337.8815 15.79851178 85024

Live tracking and technical data element details for LILACSAT-1 (NORAD 42725). LILACSAT-1 can be tracked NOW for your location showing map with azimuth and elevation plus other details from your city location.

Track the satellite on the map from your city or location and see movement details for azimuth, elevation, latitude, longitude, range, height, and movement on the map or in text.







IsCatalogInMostPopularTable: catalog: 42725, numindb: 168
Update: records affected: 1



GetName: 42725 LILACSAT-1

Hit Count: updated at: Wed, 21 Nov 2018 06:41:30 GMT